| time (UTC) | temp C | wind direction | speed KPH | gust KPH | rain 1hr cm | rain 24hr cm | rain mn cm | humidity % | barometer mb |
| 20260906145256 | 21 | 219 | 3.2 | 4.8 | 0.00 | 0.00 | 0.00 | 98 | 1007.4 |
| 20260906144840 | 21 | 176 | 1.6 | 1.6 | 0.00 | 0.00 | 0.00 | 98 | 1007.1 |
| 20260906144423 | 21 | 190 | 1.6 | 1.6 | 0.00 | 0.00 | 0.00 | 99 | 1007.4 |
| 20260906144006 | 21 | 199 | 0.0 | 1.6 | 0.00 | 0.00 | 0.00 | 99 | 1007.1 |
| 20260906143549 | 21 | 182 | 1.6 | 1.6 | 0.00 | 0.00 | 0.00 | 99 | 1007.1 |
| 20260906143120 | 21 | 213 | 3.2 | 3.2 | 0.00 | 0.00 | 0.00 | 99 | 1007.1 |
| 20260906142703 | 21 | 236 | 3.2 | 4.8 | 0.00 | 0.00 | 0.00 | 99 | 1007.1 |
| 20260906142230 | 21 | 236 | 3.2 | 4.8 | 0.00 | 0.00 | 0.00 | 99 | 1007.1 |
| 20260906141813 | 21 | 223 | 6.4 | 6.4 | 0.00 | 0.00 | 0.00 | 99 | 1007.1 |
| 20260906141357 | 21 | 212 | 4.8 | 4.8 | 0.00 | 0.00 | 0.00 | 99 | 1007.1 |
| 20260906140938 | 21 | 179 | 3.2 | 4.8 | 0.00 | 0.00 | 0.00 | 99 | 1007.1 |
| 20260906140521 | 21 | 265 | 3.2 | 3.2 | 0.00 | 0.00 | 0.00 | 99 | 1007.1 |
| 20260906140050 | 21 | 202 | 3.2 | 3.2 | 0.00 | 0.00 | 0.00 | 99 | 1007.1 |
| 20260906135632 | 21 | 233 | 4.8 | 6.4 | 0.00 | 0.00 | 0.00 | 99 | 1007.1 |
| 20260906135216 | 21 | 94 | 1.6 | 3.2 | 0.00 | 0.00 | 0.00 | 99 | 1007.1 |
| 20260906134759 | 21 | 226 | 4.8 | 4.8 | 0.00 | 0.00 | 0.00 | 99 | 1007.1 |
| 20260906134344 | 21 | 195 | 3.2 | 3.2 | 0.00 | 0.00 | 0.00 | 99 | 1007.1 |
| 20260906133927 | 21 | 255 | 4.8 | 6.4 | 0.00 | 0.00 | 0.00 | 99 | 1007.1 |
| 20260906133510 | 21 | 234 | 3.2 | 3.2 | 0.00 | 0.00 | 0.00 | 99 | 1006.7 |
| 20260906133055 | 21 | 176 | 1.6 | 3.2 | 0.00 | 0.00 | 0.00 | 99 | 1007.1 |
| 20260906132637 | 21 | 190 | 3.2 | 4.8 | 0.00 | 0.00 | 0.00 | 99 | 1006.7 |
| 20260906132206 | 21 | 195 | 3.2 | 3.2 | 0.00 | 0.00 | 0.00 | 99 | 1006.7 |
| 20260906131734 | 21 | 169 | 0.0 | 0.0 | 0.00 | 0.00 | 0.00 | 99 | 1006.7 |
| 20260906131318 | 21 | 230 | 3.2 | 4.8 | 0.00 | 0.00 | 0.00 | 99 | 1006.7 |
| 20260906130413 | 21 | 234 | 1.6 | 1.6 | 0.00 | 0.00 | 0.00 | 99 | 1006.7 |
| 20260906125942 | 21 | 143 | 0.0 | 0.0 | 0.00 | 0.00 | 0.00 | 99 | 1006.4 |
| 20260906125037 | 21 | 168 | 0.0 | 1.6 | 0.00 | 0.00 | 0.00 | 99 | 1006.7 |
| 20260906124620 | 21 | 186 | 1.6 | 1.6 | 0.00 | 0.00 | 0.00 | 99 | 1006.4 |
| 20260906124148 | 21 | 179 | 1.6 | 3.2 | 0.00 | 0.00 | 0.00 | 99 | 1006.4 |
| 20260906123717 | 21 | 149 | 0.0 | 0.0 | 0.00 | 0.00 | 0.00 | 99 | 1006.4 |
| 20260906122813 | 21 | 147 | 0.0 | 0.0 | 0.00 | 0.00 | 0.00 | 99 | 1006.0 |
| 20260906122357 | 21 | 149 | 0.0 | 0.0 | 0.00 | 0.00 | 0.00 | 99 | 1006.4 |
| 20260906121925 | 21 | 149 | 0.0 | 0.0 | 0.00 | 0.00 | 0.00 | 99 | 1006.0 |
| 20260906121505 | 21 | 157 | 0.0 | 0.0 | 0.00 | 0.00 | 0.00 | 99 | 1006.4 |
| 20260906121018 | 21 | 146 | 0.0 | 0.0 | 0.00 | 0.00 | 0.00 | 99 | 1006.0 |
| 20260906120547 | 21 | 133 | 0.0 | 0.0 | 0.00 | 0.00 | 0.00 | 99 | 1006.0 |
| 20260906115157 | 21 | 144 | 0.0 | 0.0 | 0.00 | 0.00 | 0.00 | 99 | 1006.0 |
| 20260906114740 | 21 | 145 | 0.0 | 0.0 | 0.00 | 0.00 | 0.00 | 99 | 1006.0 |
| 20260906114324 | 21 | 141 | 0.0 | 0.0 | 0.00 | 0.00 | 0.00 | 99 | 1006.0 |
| 20260906113406 | 21 | 143 | 0.0 | 0.0 | 0.00 | 0.00 | 0.00 | 99 | 1005.7 |
| 20260906112920 | 21 | 148 | 0.0 | 0.0 | 0.00 | 0.00 | 0.00 | 99 | 1005.4 |
| 20260906111947 | 21 | 149 | 0.0 | 0.0 | 0.00 | 0.00 | 0.00 | 99 | 1005.4 |
| 20260906111532 | 21 | 157 | 0.0 | 0.0 | 0.00 | 0.00 | 0.00 | 99 | 1005.7 |
| 20260906111116 | 21 | 144 | 0.0 | 0.0 | 0.00 | 0.00 | 0.00 | 99 | 1005.4 |
| 20260906110700 | 21 | 147 | 0.0 | 0.0 | 0.00 | 0.00 | 0.00 | 99 | 1005.4 |
| 20260906110230 | 21 | 140 | 0.0 | 0.0 | 0.00 | 0.00 | 0.00 | 99 | 1005.4 |
| 20260906105815 | 21 | 134 | 0.0 | 0.0 | 0.00 | 0.00 | 0.00 | 99 | 1005.0 |
| 20260906105344 | 21 | 150 | 0.0 | 0.0 | 0.00 | 0.00 | 0.00 | 99 | 1005.0 |
| 20260906104441 | 21 | 138 | 0.0 | 0.0 | 0.00 | 0.00 | 0.00 | 99 | 1004.7 |
| 20260906104024 | 21 | 140 | 0.0 | 0.0 | 0.00 | 0.00 | 0.00 | 99 | 1005.0 |
| 20260906103609 | 21 | 146 | 0.0 | 0.0 | 0.00 | 0.00 | 0.00 | 99 | 1005.0 |
| 20260906103151 | 21 | 149 | 0.0 | 0.0 | 0.00 | 0.00 | 0.00 | 99 | 1005.0 |
| 20260906102650 | 21 | 134 | 0.0 | 0.0 | 0.00 | 0.00 | 0.00 | 99 | 1004.7 |
| 20260906102219 | 21 | 161 | 0.0 | 0.0 | 0.00 | 0.00 | 0.00 | 99 | 1004.7 |
| 20260906101803 | 21 | 196 | 1.6 | 3.2 | 0.00 | 0.00 | 0.00 | 99 | 1004.7 |
| 20260906101334 | 21 | 164 | 1.6 | 1.6 | 0.00 | 0.00 | 0.00 | 99 | 1004.7 |
| 20260906100902 | 21 | 154 | 0.0 | 0.0 | 0.00 | 0.00 | 0.00 | 99 | 1004.4 |
| 20260906100432 | 21 | 132 | 0.0 | 0.0 | 0.00 | 0.00 | 0.00 | 99 | 1004.4 |
| 20260906100016 | 21 | 132 | 0.0 | 0.0 | 0.00 | 0.00 | 0.00 | 99 | 1004.7 |
| 20260906095529 | 21 | 150 | 0.0 | 0.0 | 0.00 | 0.00 | 0.00 | 99 | 1004.7 |
| 20260906095112 | 21 | 150 | 0.0 | 0.0 | 0.00 | 0.00 | 0.00 | 99 | 1004.7 |
| 20260906093738 | 21 | 133 | 0.0 | 0.0 | 0.00 | 0.00 | 0.00 | 99 | 1004.7 |
| 20260906093322 | 21 | 139 | 0.0 | 0.0 | 0.00 | 0.00 | 0.00 | 99 | 1004.7 |
| 20260906092905 | 21 | 167 | 0.0 | 0.0 | 0.00 | 0.00 | 0.00 | 99 | 1004.7 |
| 20260906092450 | 21 | 173 | 0.0 | 1.6 | 0.00 | 0.00 | 0.00 | 99 | 1004.7 |
| 20260906092019 | 21 | 164 | 0.0 | 0.0 | 0.00 | 0.00 | 0.00 | 99 | 1004.7 |
| 20260906091549 | 21 | 158 | 0.0 | 0.0 | 0.00 | 0.00 | 0.00 | 99 | 1004.7 |
| 20260906091133 | 21 | 185 | 1.6 | 1.6 | 0.00 | 0.00 | 0.00 | 99 | 1004.4 |
| 20260906090659 | 21 | 149 | 0.0 | 0.0 | 0.00 | 0.00 | 0.00 | 99 | 1004.7 |
| 20260906090211 | 21 | 149 | 0.0 | 0.0 | 0.00 | 0.00 | 0.00 | 99 | 1004.4 |
| 20260906085739 | 21 | 142 | 0.0 | 0.0 | 0.00 | 0.00 | 0.00 | 99 | 1004.7 |
| 20260906085322 | 21 | 142 | 0.0 | 0.0 | 0.00 | 0.00 | 0.00 | 99 | 1004.7 |
| 20260906084002 | 21 | 141 | 0.0 | 0.0 | 0.00 | 0.00 | 0.00 | 99 | 1004.4 |
| 20260906083531 | 21 | 141 | 0.0 | 0.0 | 0.00 | 0.00 | 0.00 | 99 | 1004.4 |
| 20260906083114 | 20 | 141 | 0.0 | 0.0 | 0.00 | 0.00 | 0.00 | 99 | 1004.4 |
| 20260906082642 | 20 | 141 | 0.0 | 0.0 | 0.00 | 0.00 | 0.00 | 99 | 1004.7 |
| 20260906082211 | 20 | 141 | 0.0 | 0.0 | 0.00 | 0.00 | 0.00 | 99 | 1004.4 |
| 20260906081252 | 21 | 141 | 0.0 | 0.0 | 0.00 | 0.00 | 0.00 | 99 | 1004.4 |
| 20260906080821 | 21 | 140 | 0.0 | 0.0 | 0.00 | 0.00 | 0.00 | 99 | 1004.7 |
| 20260906080352 | 21 | 140 | 0.0 | 0.0 | 0.00 | 0.00 | 0.00 | 99 | 1004.4 |
| 20260906075935 | 21 | 140 | 0.0 | 0.0 | 0.00 | 0.00 | 0.00 | 99 | 1004.4 |
| 20260906075518 | 21 | 140 | 0.0 | 0.0 | 0.00 | 0.00 | 0.00 | 99 | 1004.7 |
| 20260906075046 | 21 | 140 | 0.0 | 0.0 | 0.00 | 0.00 | 0.00 | 99 | 1004.7 |
| 20260906074631 | 21 | 140 | 0.0 | 0.0 | 0.00 | 0.00 | 0.00 | 99 | 1004.7 |
| 20260906074214 | 21 | 139 | 0.0 | 0.0 | 0.00 | 0.00 | 0.00 | 99 | 1005.0 |
| 20260906073325 | 21 | 137 | 0.0 | 0.0 | 0.00 | 0.00 | 0.00 | 99 | 1004.7 |
| 20260906072908 | 21 | 117 | 0.0 | 0.0 | 0.00 | 0.00 | 0.00 | 99 | 1004.7 |
| 20260906072437 | 21 | 127 | 0.0 | 0.0 | 0.00 | 0.00 | 0.00 | 99 | 1004.4 |
| 20260906071549 | 21 | 137 | 0.0 | 0.0 | 0.00 | 0.00 | 0.00 | 99 | 1004.4 |
| 20260906071133 | 21 | 136 | 0.0 | 0.0 | 0.00 | 0.00 | 0.00 | 99 | 1004.4 |
| 20260906065727 | 21 | 143 | 0.0 | 0.0 | 0.00 | 0.00 | 0.00 | 99 | 1004.4 |
| 20260906065310 | 21 | 143 | 0.0 | 0.0 | 0.00 | 0.00 | 0.00 | 99 | 1004.4 |
| 20260906064838 | 21 | 143 | 0.0 | 0.0 | 0.00 | 0.00 | 0.00 | 99 | 1004.4 |
| 20260906063934 | 21 | 139 | 0.0 | 0.0 | 0.00 | 0.00 | 0.00 | 99 | 1004.4 |
| 20260906063518 | 21 | 137 | 0.0 | 0.0 | 0.00 | 0.00 | 0.00 | 99 | 1004.4 |
| 20260906063100 | 21 | 136 | 0.0 | 0.0 | 0.00 | 0.00 | 0.00 | 99 | 1004.4 |
| 20260906062645 | 21 | 143 | 0.0 | 0.0 | 0.00 | 0.00 | 0.00 | 99 | 1004.4 |
| 20260906061323 | 21 | 134 | 0.0 | 0.0 | 0.00 | 0.00 | 0.00 | 99 | 1004.4 |
| 20260906060906 | 21 | 139 | 0.0 | 0.0 | 0.00 | 0.00 | 0.00 | 99 | 1004.4 |
| 20260906060451 | 21 | 146 | 0.0 | 0.0 | 0.00 | 0.00 | 0.00 | 99 | 1004.4 |
| 20260906060035 | 21 | 146 | 0.0 | 0.0 | 0.00 | 0.00 | 0.00 | 99 | 1004.4 |
| 20260906055618 | 21 | 146 | 0.0 | 0.0 | 0.00 | 0.00 | 0.00 | 99 | 1004.4 |
| 20260906055203 | 21 | 144 | 0.0 | 0.0 | 0.00 | 0.00 | 0.00 | 99 | 1004.4 |
| 20260906054748 | 21 | 144 | 0.0 | 0.0 | 0.00 | 0.00 | 0.00 | 99 | 1004.4 |
| 20260906054302 | 21 | 143 | 0.0 | 0.0 | 0.00 | 0.00 | 0.00 | 99 | 1004.4 |
| 20260906053846 | 21 | 144 | 0.0 | 0.0 | 0.00 | 0.00 | 0.00 | 99 | 1004.4 |
| 20260906053416 | 21 | 144 | 0.0 | 0.0 | 0.00 | 0.00 | 0.00 | 99 | 1004.7 |
| 20260906052945 | 21 | 143 | 0.0 | 0.0 | 0.00 | 0.00 | 0.00 | 99 | 1004.7 |
| 20260906052043 | 21 | 143 | 0.0 | 0.0 | 0.00 | 0.00 | 0.00 | 99 | 1004.7 |
| 20260906050712 | 21 | 144 | 0.0 | 0.0 | 0.00 | 0.00 | 0.00 | 99 | 1004.4 |
| 20260906045824 | 21 | 141 | 0.0 | 0.0 | 0.00 | 0.00 | 0.00 | 99 | 1004.4 |
| 20260906045407 | 21 | 141 | 0.0 | 0.0 | 0.00 | 0.00 | 0.00 | 99 | 1004.4 |
| 20260906044951 | 22 | 140 | 0.0 | 0.0 | 0.00 | 0.00 | 0.00 | 99 | 1004.4 |
| 20260906044520 | 22 | 140 | 0.0 | 0.0 | 0.00 | 0.00 | 0.00 | 99 | 1004.4 |
| 20260906044104 | 22 | 140 | 0.0 | 0.0 | 0.00 | 0.00 | 0.00 | 99 | 1004.4 |
| 20260906042718 | 22 | 146 | 0.0 | 0.0 | 0.00 | 0.00 | 0.00 | 99 | 1004.4 |
| 20260906042302 | 22 | 142 | 0.0 | 0.0 | 0.00 | 0.00 | 0.00 | 99 | 1004.4 |
| 20260906041846 | 22 | 142 | 0.0 | 0.0 | 0.00 | 0.00 | 0.00 | 99 | 1004.0 |
| 20260906040928 | 22 | 142 | 0.0 | 0.0 | 0.00 | 0.00 | 0.00 | 99 | 1004.0 |
| 20260906040512 | 22 | 141 | 0.0 | 0.0 | 0.00 | 0.00 | 0.00 | 99 | 1003.7 |
| 20260906040056 | 22 | 142 | 0.0 | 0.0 | 0.00 | 0.00 | 0.00 | 99 | 1004.0 |
| 20260906035624 | 22 | 142 | 0.0 | 0.0 | 0.00 | 0.00 | 0.23 | 99 | 1004.0 |
| 20260906035207 | 22 | 140 | 0.0 | 0.0 | 0.00 | 0.00 | 0.23 | 99 | 1004.0 |
| 20260906034752 | 22 | 140 | 0.0 | 0.0 | 0.00 | 0.00 | 0.23 | 99 | 1004.0 |
| 20260906033820 | 22 | 140 | 0.0 | 0.0 | 0.00 | 0.00 | 0.23 | 99 | 1004.0 |
| 20260906033400 | 22 | 139 | 0.0 | 0.0 | 0.00 | 0.00 | 0.23 | 99 | 1004.4 |
| 20260906032944 | 22 | 139 | 0.0 | 0.0 | 0.00 | 0.00 | 0.23 | 99 | 1004.4 |
| 20260906032513 | 22 | 141 | 0.0 | 0.0 | 0.00 | 0.00 | 0.23 | 99 | 1004.4 |
| 20260906032043 | 22 | 138 | 0.0 | 0.0 | 0.00 | 0.00 | 0.23 | 99 | 1004.4 |
| 20260906031555 | 23 | 135 | 0.0 | 0.0 | 0.00 | 0.00 | 0.23 | 99 | 1004.4 |
| 20260906031140 | 23 | 95 | 0.0 | 0.0 | 0.00 | 0.00 | 0.23 | 99 | 1004.4 |
| 20260906030651 | 23 | 117 | 0.0 | 0.0 | 0.00 | 0.00 | 0.23 | 99 | 1004.4 |
| 20260906030236 | 23 | 114 | 0.0 | 0.0 | 0.00 | 0.00 | 0.23 | 99 | 1004.4 |
| 20260906025346 | 23 | 134 | 0.0 | 0.0 | 0.00 | 0.00 | 0.23 | 99 | 1004.4 |
| 20260906024914 | 23 | 124 | 0.0 | 0.0 | 0.00 | 0.00 | 0.23 | 99 | 1004.7 |
| 20260906024427 | 22 | 124 | 0.0 | 0.0 | 0.00 | 0.00 | 0.23 | 99 | 1004.7 |
| 20260906023954 | 22 | 121 | 0.0 | 0.0 | 0.00 | 0.00 | 0.23 | 99 | 1004.7 |
| 20260906023538 | 22 | 128 | 0.0 | 0.0 | 0.00 | 0.00 | 0.23 | 99 | 1004.7 |
| 20260906023107 | 22 | 128 | 0.0 | 0.0 | 0.00 | 0.00 | 0.23 | 99 | 1004.7 |
| 20260906022636 | 22 | 117 | 0.0 | 0.0 | 0.00 | 0.00 | 0.23 | 99 | 1004.7 |
| 20260906022204 | 23 | 117 | 0.0 | 0.0 | 0.00 | 0.00 | 0.23 | 99 | 1004.7 |
| 20260906021733 | 23 | 66 | 1.6 | 1.6 | 0.00 | 0.00 | 0.23 | 99 | 1004.7 |
| 20260906021316 | 23 | 44 | 1.6 | 1.6 | 0.00 | 0.00 | 0.23 | 99 | 1004.7 |
| 20260906020357 | 23 | 80 | 0.0 | 1.6 | 0.00 | 0.00 | 0.23 | 99 | 1004.4 |
| 20260906015941 | 23 | 130 | 0.0 | 0.0 | 0.00 | 0.00 | 0.23 | 99 | 1004.4 |
| 20260906015509 | 23 | 136 | 0.0 | 0.0 | 0.00 | 0.00 | 0.23 | 99 | 1004.4 |
| 20260906014621 | 23 | 107 | 0.0 | 0.0 | 0.00 | 0.00 | 0.23 | 99 | 1004.4 |
| 20260906014149 | 23 | 135 | 0.0 | 0.0 | 0.00 | 0.00 | 0.23 | 99 | 1004.4 |
| 20260906013733 | 23 | 140 | 0.0 | 0.0 | 0.00 | 0.00 | 0.23 | 99 | 1004.0 |
| 20260906013259 | 23 | 135 | 0.0 | 0.0 | 0.00 | 0.00 | 0.23 | 99 | 1004.0 |
| 20260906012842 | 23 | 117 | 0.0 | 0.0 | 0.00 | 0.00 | 0.23 | 98 | 1003.7 |
| 20260906012411 | 23 | 141 | 0.0 | 0.0 | 0.00 | 0.00 | 0.23 | 98 | 1003.7 |
| 20260906011939 | 23 | 141 | 0.0 | 0.0 | 0.00 | 0.00 | 0.23 | 98 | 1003.7 |
| 20260906011036 | 23 | 141 | 0.0 | 0.0 | 0.00 | 0.00 | 0.23 | 98 | 1003.3 |
| 20260906010133 | 23 | 140 | 0.0 | 0.0 | 0.00 | 0.00 | 0.23 | 97 | 1003.3 |
| 20260906005716 | 23 | 140 | 0.0 | 0.0 | 0.00 | 0.00 | 0.23 | 97 | 1003.7 |
| 20260906005244 | 23 | 140 | 0.0 | 0.0 | 0.00 | 0.00 | 0.23 | 97 | 1003.3 |
| 20260906004813 | 23 | 140 | 0.0 | 0.0 | 0.00 | 0.00 | 0.23 | 97 | 1003.7 |
| 20260906004340 | 23 | 136 | 0.0 | 0.0 | 0.00 | 0.00 | 0.23 | 97 | 1003.3 |
| 20260906003923 | 24 | 136 | 0.0 | 0.0 | 0.00 | 0.00 | 0.23 | 97 | 1003.3 |
| 20260906003506 | 24 | 134 | 0.0 | 0.0 | 0.00 | 0.00 | 0.23 | 96 | 1003.3 |
| 20260906002602 | 24 | 130 | 0.0 | 0.0 | 0.00 | 0.00 | 0.23 | 96 | 1003.3 |
| 20260906002147 | 24 | 124 | 0.0 | 0.0 | 0.00 | 0.00 | 0.23 | 96 | 1003.3 |
| 20260906001729 | 24 | 140 | 0.0 | 0.0 | 0.00 | 0.00 | 0.23 | 95 | 1003.3 |
| 20260906001257 | 24 | 132 | 0.0 | 0.0 | 0.00 | 0.00 | 0.23 | 95 | 1003.7 |
| 20260906000841 | 25 | 142 | 0.0 | 0.0 | 0.00 | 0.00 | 0.23 | 94 | 1003.7 |
| 20260906000411 | 25 | 130 | 0.0 | 0.0 | 0.00 | 0.00 | 0.23 | 93 | 1003.3 |
| 20260905235952 | 25 | 130 | 0.0 | 0.0 | 0.00 | 0.00 | 0.23 | 93 | 1003.3 |
| 20260905235536 | 25 | 143 | 0.0 | 0.0 | 0.00 | 0.00 | 0.23 | 92 | 1003.7 |
| 20260905235047 | 25 | 140 | 0.0 | 0.0 | 0.00 | 0.00 | 0.23 | 91 | 1003.7 |
| 20260905234631 | 26 | 135 | 0.0 | 0.0 | 0.00 | 0.00 | 0.23 | 91 | 1003.7 |
| 20260905234216 | 26 | 145 | 0.0 | 0.0 | 0.00 | 0.00 | 0.23 | 90 | 1003.7 |
| 20260905233801 | 26 | 141 | 0.0 | 0.0 | 0.00 | 0.00 | 0.23 | 88 | 1004.0 |
| 20260905233345 | 27 | 136 | 0.0 | 0.0 | 0.00 | 0.00 | 0.23 | 87 | 1003.7 |
| 20260905231547 | 29 | 140 | 0.0 | 0.0 | 0.00 | 0.00 | 0.23 | 81 | 1003.7 |
| 20260905231119 | 29 | 138 | 0.0 | 0.0 | 0.00 | 0.00 | 0.23 | 82 | 1003.7 |
| 20260905230219 | 28 | 136 | 0.0 | 0.0 | 0.00 | 0.00 | 0.23 | 84 | 1004.0 |
| 20260905225747 | 28 | 142 | 0.0 | 0.0 | 0.00 | 0.00 | 0.23 | 84 | 1003.7 |
| 20260905225317 | 28 | 141 | 0.0 | 0.0 | 0.00 | 0.00 | 0.23 | 83 | 1003.7 |
| 20260905224846 | 29 | 135 | 0.0 | 0.0 | 0.00 | 0.00 | 0.23 | 83 | 1004.0 |
| 20260905224429 | 29 | 138 | 0.0 | 0.0 | 0.00 | 0.00 | 0.23 | 81 | 1003.7 |
| 20260905224010 | 30 | 144 | 0.0 | 0.0 | 0.00 | 0.00 | 0.23 | 80 | 1004.0 |
| 20260905223539 | 30 | 130 | 0.0 | 0.0 | 0.00 | 0.00 | 0.23 | 78 | 1003.7 |
| 20260905223125 | 30 | 146 | 0.0 | 0.0 | 0.00 | 0.00 | 0.23 | 78 | 1003.7 |
| 20260905222710 | 30 | 144 | 0.0 | 0.0 | 0.00 | 0.00 | 0.23 | 79 | 1004.0 |
| 20260905222255 | 29 | 140 | 0.0 | 0.0 | 0.00 | 0.00 | 0.23 | 80 | 1004.0 |
| 20260905221839 | 29 | 146 | 0.0 | 1.6 | 0.00 | 0.00 | 0.23 | 80 | 1003.7 |
| 20260905220938 | 30 | 138 | 0.0 | 0.0 | 0.00 | 0.00 | 0.23 | 76 | 1003.7 |
| 20260905220520 | 30 | 156 | 0.0 | 1.6 | 0.00 | 0.00 | 0.23 | 76 | 1003.7 |
| 20260905220046 | 29 | 210 | 6.4 | 6.4 | 0.00 | 0.00 | 0.23 | 75 | 1004.0 |
| 20260905215630 | 30 | 212 | 6.4 | 6.4 | 0.00 | 0.00 | 0.23 | 73 | 1003.7 |
| 20260905215159 | 30 | 203 | 1.6 | 1.6 | 0.00 | 0.00 | 0.23 | 74 | 1004.0 |
| 20260905214312 | 29 | 208 | 3.2 | 3.2 | 0.00 | 0.00 | 0.23 | 75 | 1003.7 |
| 20260905212943 | 30 | 181 | 1.6 | 1.6 | 0.00 | 0.00 | 0.23 | 74 | 1003.7 |
| 20260905212044 | 30 | 198 | 4.8 | 4.8 | 0.00 | 0.00 | 0.23 | 72 | 1003.3 |
| 20260905211614 | 29 | 210 | 3.2 | 3.2 | 0.00 | 0.00 | 0.23 | 74 | 1003.3 |
| 20260905211158 | 30 | 255 | 3.2 | 4.8 | 0.00 | 0.00 | 0.23 | 75 | 1003.3 |
| 20260905210743 | 29 | 180 | 1.6 | 1.6 | 0.00 | 0.00 | 0.23 | 74 | 1003.3 |
| 20260905204925 | 30 | 234 | 6.4 | 11.3 | 0.00 | 0.00 | 0.23 | 72 | 1003.3 |
| 20260905204510 | 30 | 198 | 1.6 | 1.6 | 0.00 | 0.00 | 0.23 | 71 | 1003.3 |
| 20260905204053 | 30 | 222 | 3.2 | 4.8 | 0.00 | 0.00 | 0.23 | 73 | 1003.3 |
| 20260905203637 | 31 | 195 | 1.6 | 3.2 | 0.00 | 0.00 | 0.23 | 71 | 1003.3 |
| 20260905203223 | 30 | 168 | 0.0 | 0.0 | 0.00 | 0.00 | 0.23 | 70 | 1003.7 |
| 20260905202807 | 30 | 223 | 3.2 | 3.2 | 0.00 | 0.00 | 0.23 | 70 | 1003.7 |
| 20260905202353 | 30 | 183 | 3.2 | 4.8 | 0.00 | 0.00 | 0.23 | 71 | 1003.7 |
| 20260905201939 | 30 | 193 | 4.8 | 6.4 | 0.00 | 0.00 | 0.23 | 69 | 1003.7 |
| 20260905201524 | 31 | 315 | 1.6 | 3.2 | 0.00 | 0.00 | 0.23 | 70 | 1003.3 |
| 20260905201053 | 30 | 205 | 1.6 | 3.2 | 0.00 | 0.00 | 0.23 | 70 | 1004.0 |
| 20260905200154 | 30 | 175 | 0.0 | 0.0 | 0.00 | 0.00 | 0.23 | 70 | 1004.0 |
| 20260905195724 | 30 | 239 | 8.0 | 9.7 | 0.00 | 0.00 | 0.23 | 72 | 1004.4 |
| 20260905195307 | 30 | 189 | 1.6 | 3.2 | 0.00 | 0.00 | 0.23 | 71 | 1004.0 |
| 20260905194404 | 30 | 275 | 1.6 | 3.2 | 0.00 | 0.00 | 0.23 | 71 | 1004.4 |
| 20260905193500 | 30 | 182 | 1.6 | 1.6 | 0.00 | 0.00 | 0.23 | 70 | 1004.4 |
| 20260905193043 | 30 | 186 | 1.6 | 1.6 | 0.00 | 0.00 | 0.23 | 69 | 1004.4 |
| 20260905192613 | 30 | 217 | 0.0 | 0.0 | 0.00 | 0.00 | 0.23 | 73 | 1004.4 |
| 20260905192142 | 29 | 285 | 3.2 | 3.2 | 0.00 | 0.00 | 0.23 | 77 | 1004.7 |
| 20260905191726 | 30 | 240 | 1.6 | 3.2 | 0.00 | 0.00 | 0.23 | 74 | 1004.7 |
| 20260905191255 | 29 | 154 | 1.6 | 3.2 | 0.00 | 0.00 | 0.23 | 74 | 1004.7 |
| 20260905190840 | 30 | 214 | 3.2 | 3.2 | 0.00 | 0.00 | 0.23 | 73 | 1004.4 |
| 20260905190408 | 30 | 241 | 1.6 | 3.2 | 0.00 | 0.00 | 0.23 | 75 | 1004.7 |
| 20260905185938 | 29 | 49 | 3.2 | 3.2 | 0.00 | 0.00 | 0.23 | 76 | 1005.0 |
| 20260905185522 | 29 | 263 | 4.8 | 6.4 | 0.00 | 0.00 | 0.23 | 78 | 1004.7 |
| 20260905185051 | 29 | 246 | 3.2 | 4.8 | 0.00 | 0.00 | 0.23 | 75 | 1004.7 |
| 20260905184637 | 28 | 6 | 3.2 | 3.2 | 0.00 | 0.00 | 0.23 | 76 | 1005.0 |
| 20260905184222 | 29 | 143 | 3.2 | 3.2 | 0.00 | 0.00 | 0.23 | 75 | 1004.7 |
| 20260905183735 | 30 | 342 | 3.2 | 3.2 | 0.00 | 0.00 | 0.23 | 74 | 1004.7 |
| 20260905183319 | 30 | 345 | 0.0 | 1.6 | 0.00 | 0.00 | 0.23 | 76 | 1005.0 |
| 20260905182900 | 28 | 140 | 1.6 | 1.6 | 0.00 | 0.00 | 0.23 | 79 | 1005.0 |
| 20260905182014 | 28 | 201 | 1.6 | 3.2 | 0.00 | 0.00 | 0.23 | 77 | 1005.0 |
| 20260905181554 | 28 | 201 | 1.6 | 1.6 | 0.00 | 0.00 | 0.23 | 77 | 1005.0 |
| 20260905181123 | 28 | 170 | 0.0 | 1.6 | 0.00 | 0.00 | 0.23 | 81 | 1005.0 |
| 20260905180706 | 28 | 131 | 0.0 | 0.0 | 0.00 | 0.00 | 0.23 | 79 | 1005.0 |
| 20260905175804 | 28 | 127 | 1.6 | 1.6 | 0.00 | 0.00 | 0.23 | 74 | 1005.0 |
| 20260905175349 | 28 | 185 | 1.6 | 1.6 | 0.00 | 0.00 | 0.23 | 76 | 1005.0 |
| 20260905174934 | 27 | 193 | 0.0 | 1.6 | 0.00 | 0.00 | 0.23 | 79 | 1005.4 |
| 20260905174050 | 27 | 127 | 1.6 | 1.6 | 0.00 | 0.00 | 0.23 | 80 | 1005.0 |
| 20260905173634 | 28 | 168 | 0.0 | 0.0 | 0.00 | 0.00 | 0.23 | 81 | 1005.4 |
| 20260905173204 | 27 | 154 | 0.0 | 1.6 | 0.00 | 0.00 | 0.23 | 81 | 1005.4 |
| 20260905172747 | 27 | 191 | 1.6 | 1.6 | 0.00 | 0.00 | 0.23 | 82 | 1005.7 |
| 20260905171900 | 26 | 144 | 1.6 | 1.6 | 0.00 | 0.00 | 0.23 | 85 | 1005.4 |
| 20260905171444 | 26 | 271 | 1.6 | 3.2 | 0.00 | 0.00 | 0.23 | 85 | 1005.7 |
| 20260905170542 | 26 | 253 | 3.2 | 3.2 | 0.00 | 0.00 | 0.23 | 86 | 1006.0 |
| 20260905170127 | 26 | 137 | 1.6 | 1.6 | 0.00 | 0.00 | 0.23 | 87 | 1005.7 |
| 20260905165711 | 26 | 115 | 0.0 | 0.0 | 0.00 | 0.00 | 0.23 | 87 | 1006.0 |
| 20260905165253 | 26 | 117 | 0.0 | 0.0 | 0.00 | 0.00 | 0.23 | 88 | 1006.0 |
| 20260905164836 | 26 | 196 | 3.2 | 3.2 | 0.00 | 0.00 | 0.23 | 87 | 1006.0 |
| 20260905164422 | 26 | 179 | 0.0 | 1.6 | 0.00 | 0.00 | 0.23 | 87 | 1006.0 |
| 20260905163949 | 26 | 146 | 0.0 | 0.0 | 0.00 | 0.00 | 0.23 | 85 | 1006.0 |
| 20260905163518 | 26 | 156 | 0.0 | 0.0 | 0.00 | 0.00 | 0.23 | 87 | 1006.0 |
| 20260905163048 | 26 | 145 | 0.0 | 0.0 | 0.00 | 0.00 | 0.23 | 88 | 1006.0 |
| 20260905162632 | 26 | 146 | 0.0 | 1.6 | 0.00 | 0.00 | 0.23 | 88 | 1005.7 |
| 20260905162200 | 26 | 144 | 0.0 | 0.0 | 0.00 | 0.00 | 0.23 | 90 | 1006.0 |
| 20260905161743 | 26 | 131 | 0.0 | 0.0 | 0.00 | 0.00 | 0.23 | 89 | 1006.0 |
| 20260905161327 | 25 | 168 | 0.0 | 1.6 | 0.00 | 0.00 | 0.23 | 90 | 1006.0 |
| 20260905160856 | 25 | 142 | 0.0 | 0.0 | 0.00 | 0.00 | 0.23 | 90 | 1006.0 |
| 20260905160442 | 25 | 153 | 0.0 | 0.0 | 0.00 | 0.00 | 0.23 | 91 | 1006.4 |
| 20260905160011 | 24 | 138 | 0.0 | 0.0 | 0.00 | 0.00 | 0.23 | 94 | 1006.4 |
| 20260905155541 | 24 | 354 | 3.2 | 3.2 | 0.00 | 0.00 | 0.23 | 93 | 1006.4 |
| 20260905154209 | 24 | 196 | 1.6 | 1.6 | 0.00 | 0.00 | 0.23 | 93 | 1006.0 |
| 20260905153736 | 24 | 230 | 1.6 | 3.2 | 0.00 | 0.00 | 0.23 | 93 | 1006.4 |
| 20260905153318 | 24 | 141 | 0.0 | 0.0 | 0.00 | 0.00 | 0.23 | 96 | 1006.0 |
| 20260905152901 | 24 | 134 | 0.0 | 1.6 | 0.00 | 0.00 | 0.23 | 95 | 1006.0 |
| 20260905152444 | 23 | 110 | 0.0 | 1.6 | 0.00 | 0.00 | 0.23 | 96 | 1005.4 |
| 20260905152027 | 23 | 139 | 0.0 | 0.0 | 0.00 | 0.00 | 0.23 | 98 | 1005.4 |
| 20260905151555 | 23 | 86 | 0.0 | 0.0 | 0.00 | 0.00 | 0.23 | 99 | 1005.4 |
| 20260905151140 | 23 | 115 | 0.0 | 0.0 | 0.00 | 0.00 | 0.23 | 98 | 1005.0 |
| 20260905150722 | 23 | 101 | 1.6 | 1.6 | 0.00 | 0.00 | 0.23 | 98 | 1005.4 |
| 20260905150305 | 23 | 323 | 3.2 | 3.2 | 0.00 | 0.00 | 0.23 | 97 | 1005.7 |
| 20260905145849 | 23 | 278 | 4.8 | 6.4 | 0.00 | 0.00 | 0.23 | 98 | 1006.0 |